Simultaneous Nadir Overpasses (SNOs) Predictions

Prediction of SNOs between FY3D and AQUA Satellite Orbit:

Table of predicted SNOs for the next 14.0 days since TLE Epoch: 5/18/2019
Index Date (FY3D) Time (FY3D) Lat,Lon (FY3D) SZA (FY3D ) Date (AQUA) Time (AQUA) Lat,Lon (AQUA) SZA (AQUA ) Distance(km) Time Diff (sec)
1 05/18/2019 20:18:06 -66.20, -81.92 91.71 05/18/2019 20:19:11 -66.20, -81.90 91.79 1.10 65
2 05/18/2019 21:07:31 70.40, 90.85 83.90 05/18/2019 21:07:21 70.39, 90.82 83.92 1.02 10
3 05/21/2019 12:34:39 -65.89, 33.64 91.93 05/21/2019 12:35:44 -65.90, 33.69 92.02 2.30 65
4 05/21/2019 13:24:02 70.20,-153.57 83.58 05/21/2019 13:23:52 70.20,-153.57 83.59 0.15 10
5 05/24/2019 04:50:49 -66.84, 150.55 93.39 05/24/2019 04:51:55 -66.83, 150.52 93.45 1.44 66
6 05/24/2019 05:40:32 70.06, -37.91 83.24 05/24/2019 05:40:22 70.06, -37.89 83.24 0.90 10
7 05/26/2019 21:07:19 -66.69, -93.73 93.68 05/26/2019 21:08:25 -66.69, -93.75 93.74 0.85 66
8 05/26/2019 21:57:01 69.96, 77.82 82.90 05/26/2019 21:56:51 69.96, 77.86 82.90 1.37 10
9 05/29/2019 13:23:46 -66.65, 22.10 94.03 05/29/2019 13:24:52 -66.65, 22.09 94.10 0.56 66
10 05/29/2019 14:13:27 69.97,-166.28 82.49 05/29/2019 14:13:17 69.97,-166.25 82.49 1.50 10




NCC Satellite Simultaneous Nadir Overpasses (SNOs) Prediction Service
